Location: Herksen
(52.4316°N, 6.1319°E)
Time: 20:00:54
(UTC+00:00)

CZ-2C R/B - Pass Details

Date: 15 May 2026
Orbit: 332 x 344 km, 97.7° (Epoch: 8 June)

Event Time Altitude Azimuth Distance (km) Brightness Sun altitude
Rises 19:00:36 0° 63° (ENE) 2,119 5.5 2.3°
Enters shadow 19:53:48 -74° 170° (S) 12,623 9.6 -4.4°
Maximum altitude 20:31:29 23° 67° (ENE) 765 3.4 -8.5°
